This demonstration page uses our WeatherBlox Daily Observations layout. Learn more.

36.17497, -115.13722

Hourly Observations for February 1, 2016

Temp ( °F °C ) Dew Point ( °F °C ) Humidity (%) Winds ( mph kmh ) Pressure ( in mb ) Visibility ( mi km ) Precip ( " mm )
12:00 am 00:00 Cloudy 45 7 32 0 61 61 WNW 12 19 29.41 996 10 16.0934 0 0
12:53 am 00:53 Cloudy 42 5.6 34 1.1 73 73 NNW 26 43 29.44 997 10 16.0934 0 0
1:30 am 01:30 Cloudy with Light Rain 41 5 37 3 87 87 NW 14 22 29.47 998 10 16.0934 0 0
1:53 am 01:53 Cloudy 42 5.6 35 1.7 76 76 S 6 9 29.49 999 10 16.0934 0.02 0.508
2:34 am 02:34 Cloudy 41 5 34 1 76 76 NNW 18 30 29.47 998 10 16.0934 0 0
2:43 am 02:43 Cloudy 41 5 34 1.1 76 76 NW 9 15 29.5 999 10 16.0934 0 0
2:53 am 02:53 Cloudy 41 5 34 1.1 76 76 NW 15 24 29.52 1000 10 16.0934 0 0
3:53 am 03:53 Cloudy 41 5 31 -0.6 67 67 NNW 16 26 29.55 1001 10 16.0934 0 0
4:53 am 04:53 Cloudy 41 5 30 -1.1 65 65 NNW 22 35 29.58 1002 10 16.0934 0 0
5:53 am 05:53 Cloudy 40 4.4 30 -1.1 68 68 NNW 26 43 29.64 1004 10 16.0934 0 0
6:53 am 06:53 Cloudy 39 3.9 28 -2.2 65 65 NNW 23 37 29.7 1006 10 16.0934 0 0
7:53 am 07:53 Mostly Cloudy 39 3.9 28 -2.2 65 65 NW 26 43 29.76 1008 10 16.0934 0 0
8:53 am 08:53 Cloudy 41 5 27 -2.8 57 57 NNW 30 48 29.8 1009 10 16.0934 0 0
9:53 am 09:53 Mostly Sunny 43 6.1 22 -5.6 43 43 N 30 48 29.85 1011 10 16.0934 0 0
10:53 am 10:53 Sunny 43 6.1 19 -7.2 38 38 NNW 33 54 29.89 1012 10 16.0934 0 0
11:53 am 11:53 Cloudy 44 6.7 16 -8.9 32 32 NNW 26 43 29.91 1013 10 16.0934 0 0
12:53 pm 12:53 Sunny 44 6.7 14 -10 30 30 NNW 32 52 29.92 1013 10 16.0934 0 0
1:53 pm 13:53 Sunny 44 6.7 14 -10 30 30 NNW 26 43 29.95 1014 10 16.0934 0 0
2:53 pm 14:53 Sunny 46 7.8 12 -11.1 25 25 NNW 23 37 29.98 1015 10 16.0934 0 0
3:53 pm 15:53 Mostly Cloudy with Light Rain 54 12 46 8 77 77 VRB 5 7 29.38 995 10 16.0934 0 0
4:53 pm 16:53 Sunny 43 6.1 12 -11.1 28 28 N 21 33 30.04 1017 10 16.0934 0 0
5:53 pm 17:53 Clear 43 6.1 12 -11.1 28 28 NNW 22 35 30.08 1019 10 16.0934 0 0
6:53 pm 18:53 Clear 41 5 11 -11.7 29 29 NNW 28 44 30.12 1020 10 16.0934 0 0
7:53 pm 19:53 Clear 41 5 10 -12.2 28 28 NNW 25 41 30.12 1020 10 16.0934 0 0
8:53 pm 20:53 Clear 40 4.4 11 -11.7 30 30 NNW 30 48 30.13 1020 10 16.0934 0 0
9:53 pm 21:53 Clear 40 4.4 10 -12.2 29 29 NNW 24 39 30.14 1021 10 16.0934 0 0
10:53 pm 22:53 Clear 39 3.9 9 -12.8 29 29 NNW 15 24 30.18 1022 10 16.0934 0 0
11:53 pm 23:53 Clear 38 3.3 11 -11.7 33 33 N 12 19 30.18 1022 10 16.0934 0 0

Powered by AerisWeather